Location: ??????
(36.0418°N, 43.6351°E)
Time: 22:10:29
(UTC+00:00)

CZ-4B R/B - Pass Details

Date: 07 March 2021
Orbit: 496 x 646 km, 97.8° (Epoch: 18 April)

Event Time Altitude Azimuth Distance (km) Brightness Sun altitude
Rises 01:48:14 0° 15° (NNE) 2,619 7.6 -20.9°
Reaches altitude 10° 01:50:22 10° 18° (NNE) 1,717 6.7 -20.5°
Maximum altitude 01:54:00 65° 101° (E) 551 4.0 -19.7°
Drops below altitude 10° 01:57:36 10° 184° (S) 1,687 6.2 -19.0°
Enters shadow 01:58:42 - 186° (S) 2,157 6.7 -18.8°
